Lexington Weather

Lexington, Massachusetts, USA

26°F
2/29/2020 2:04am 
  • Lexington Conditions: Clear
  • Temperature: 26.1°F / -3.3°CColder 0.7°F than last hour.
  • Dew Point: 15.3°FIncreased 1.3°Fsince last hour.
  • Relative Humidity: 63%Increased 5.0% since last hour.
  • Wind: Calm, 10-min avg: Calm, gust: 1 mph
  • Barometer: 29.74 in Steady
  • Visibility: 10 miles
  • Snow Today: 0.0 in
  •   

Regional Weather Roundup
for Boston / Norton, MA

        
000
ASUS41 KBOX 290000
RWRBOX

REGIONAL WEATHER ROUNDUP
NATIONAL WEATHER SERVICE BOSTON/NORTON MA
700 PM EST FRI FEB 28 2020

NOTE:  "FAIR" INDICATES FEW OR NO CLOUDS BELOW 12,000 FEET WITH NO 
SIGNIFICANT WEATHER AND/OR OBSTRUCTIONS TO VISIBILITY.

MAZALL-290100-
EASTERN MASSACHUSETTS
  
CITY           SKY/WX    TMP DP  RH WIND       PRES   REMARKS
BOSTON         MOCLDY    34   8  33 W10       29.78R WCI  26          
6HR MIN TEMP:  34; 6HR MAX TEMP:  38;                                

BEVERLY        MOCLDY    33   9  36 W7        29.76R WCI  27          
LAWRENCE       FAIR      32  11  41 SW10      29.78R WCI  24          
BEDFORD        FAIR      33   6  32 W8        29.77R WCI  26          
BLUE HILL        N/A     30   9  41 W12G20    29.74R WCI  20          
NORWOOD        MOCLDY    35   9  33 W6        29.78R WCI  30          
MARSHFIELD     NOT AVBL                                               
PLYMOUTH       MOCLDY    33  13  43 SW7       29.78R WCI  27          
TAUNTON        FAIR      33  10  38 SW3       29.78R                  
NEW BEDFORD    FAIR      34  10  37 SW6       29.78R WCI  29          
$$

MAZALL-290100-
CAPE COD AND THE ISLANDS
  
CITY           SKY/WX    TMP DP  RH WIND       PRES   REMARKS
FALMOUTH       MOCLDY    34  12  40 SW14      29.79R WCI  24          
HYANNIS        NOT AVBL                                               
CHATHAM        FAIR      36  17  46 W7G20     29.80R WCI  30          
PROVINCETOWN   FAIR      35  17  47 SW13      29.79R WCI  26          
NANTUCKET      FAIR      37  23  56 W13       29.81R WCI  29          
MARTHAS VNYRD  FAIR      36  18  48 W12       29.80R WCI  28          
$$
 
MAZALL-290100-
CENTRAL AND WESTERN MASSACHUSETTS
  
CITY           SKY/WX    TMP DP  RH WIND       PRES   REMARKS
WORCESTER      FAIR      28   6  39 W14G20    29.74R WCI  17          
6HR MIN TEMP:  28; 6HR MAX TEMP:  33;                                

FITCHBURG      FAIR      31   7  36 W10       29.77R WCI  22          
ORANGE         FAIR      31  10  41 W8        29.77R WCI  23          
SPRINGFIELD    NOT AVBL                                               
WESTFIELD      NOT AVBL                                               
NORTH ADAMS    MOCLDY    27  11  51 W5        29.75R WCI  22          
PITTSFIELD     FAIR      25  10  53 SW5       29.72R WCI  19          
$$
 
RIZALL-290100-
RHODE ISLAND
  
CITY           SKY/WX    TMP DP  RH WIND       PRES   REMARKS
PROVIDENCE     FAIR      33  12  41 SW5       29.79R WCI  29          
6HR MIN TEMP:  33; 6HR MAX TEMP:  39;                                

NEWPORT        FAIR      36  11  35 VRB6      29.78R WCI  31          
BLOCK ISLAND   FAIR      36  17  46 W14G23    29.81R WCI  27          
SMITHFIELD     MOCLDY    31  11  43 W5        29.77R WCI  26          
WESTERLY       FAIR      38  11  32 W7        29.80R                  
$$
 
CTZALL-290100-
CONNECTICUT
  
CITY           SKY/WX    TMP DP  RH WIND       PRES   REMARKS
BRADLEY INTL   FAIR      32   7  35 W9        29.80R WCI  24          
6HR MIN TEMP:  32; 6HR MAX TEMP:  40;                                

HARTFORD       FAIR      35   6  29 W10G18    29.81R WCI  27          
BRIDGEPORT     FAIR      36   6  28 W6        29.81R WCI  31          
DANBURY        FAIR      31   5  33 CALM      29.80R                  
GROTON         NOT AVBL                                               
NEW HAVEN      FAIR      38  10  31 W7        29.80R                  
CHESTER        FAIR      32   3  29 CALM      29.79R                  
MERIDEN        FAIR      34   7  32 NW6       29.81R WCI  29          
WILLIMANTIC    FAIR      33   9  36 VRB7      29.80R WCI  27          
OXFORD         FAIR      31   9  39 W3        29.78R                  
$$

MEZ002-015-021-024-NHZ003-005-008-011-012-014-VTZ005-008-290100-
NORTHERN NEW ENGLAND
  
CITY           SKY/WX    TMP DP  RH WIND       PRES   REMARKS
PORTLAND ME    FAIR      32   7  35 SW6       29.75R WCI  26          
6HR MIN TEMP:  32; 6HR MAX TEMP:  37;                                

BANGOR ME      MOCLDY    30  11  45 CALM      29.68R                  
CONCORD NH     FAIR      29   7  39 W9        29.75R WCI  20          
MANCHESTER NH  FAIR      32   8  36 W5        29.75R WCI  27          
NASHUA NH      MOCLDY    31  11  43 W5        29.77R WCI  26          
PORTSMOUTH NH  NOT AVBL                                               
JAFFREY NH     FAIR      28   9  44 SW6       29.73R WCI  22          
KEENE NH       FAIR      27  13  55 W3        29.77R                  
BURLINGTON VT  FAIR      26  15  63 SW10      29.69R WCI  16          
MT. WASHINGTON NOT AVBL                                               
$$

NYZ052-076-290100-
EASTERN NEW YORK
  
CITY           SKY/WX    TMP DP  RH WIND       PRES   REMARKS
ALBANY         MOCLDY    30  11  45 SW5       29.78R WCI  25          
6HR MIN TEMP:  28; 6HR MAX TEMP:  34; 6HR PCP: TRACE;                

NEW YORK CITY  MOCLDY    39  11  31 W12       29.81R WCI  32          
6HR MIN TEMP:  39; 6HR MAX TEMP:  42;                                

$$
 
ANZALL-290100-
MARINE OBSERVATIONS
  
STATION/POSITION TIME  TEMP    WIND        PRES    VSBY  WAVE
                       AIR SEA DIR/SP/G                  HT/PER
                 (UTC) (F)     (DEG/KT/KT) (MB)    (MI)  (FT/S)
BOSTON BUOY      2250   37 41  260/ 17/ 19 1006.9          3/ 4
BUZZARDS BAY     2300          250/ 28/ 31 1009.1R
NANTUCKET SOUND  NOT AVBL
MASS BAY-STELLWA 2304   36 41  300/ 17/ 19 1005.7R  1 7/8  3/ 4
ISLE OF SHOALS   2300   34     260/ 19/ 20 1006.6R
S OF BLOCK IS    2330      44                N/A          10/ 8
$$

......................KEY.........................
  SKY/WX - SKY CONDITION/PRESENT WEATHER
  TMP    - TEMPERATURE IN FAHRENHEIT
  DWPT   - DEWPOINT IN FAHRENHEIT
  RH     - RELATIVE HUMIDITY IN PERCENT
  WIND   - DIRECTION AND SPEED IN MPH
  PRES   - MEAN SEA LEVEL PRESSURE IN INCHES OF HG
  WCI    - WIND CHILL INDEX
  VSB    - VISIBILITY IN MILES
  HX     - HEAT INDEX
  TC     - TEMPERATURE IN CELSIUS
  VRB    - VARIABLE WIND DIRECTION
  N/A    - NOT AVAILABLE
  
      

Other recent Regional Weather Roundups

Sat Feb 29, 2:00am

Sat Feb 29, 1:10am

Sat Feb 29, 1:00am

Sat Feb 29, 12:10am

Sat Feb 29, 12:00am

Fri Feb 28, 11:10pm

Fri Feb 28, 11:00pm

Fri Feb 28, 10:10pm

Fri Feb 28, 10:00pm

Fri Feb 28, 9:10pm

Fri Feb 28, 9:00pm

Fri Feb 28, 8:10pm

Fri Feb 28, 8:01pm

Fri Feb 28, 7:10pm

Fri Feb 28, 6:10pm

Fri Feb 28, 6:01pm

Fri Feb 28, 5:10pm

Fri Feb 28, 5:00pm

Fri Feb 28, 4:10pm

Fri Feb 28, 4:01pm

Fri Feb 28, 3:10pm

Fri Feb 28, 3:00pm

Fri Feb 28, 2:10pm

Fri Feb 28, 2:00pm

Fri Feb 28, 1:10pm

Fri Feb 28, 1:01pm

Fri Feb 28, 12:10pm

Fri Feb 28, 12:01pm

Fri Feb 28, 11:10am

Fri Feb 28, 11:00am

Fri Feb 28, 10:10am

Fri Feb 28, 10:00am

Fri Feb 28, 9:10am

Fri Feb 28, 9:01am

Fri Feb 28, 8:10am

Fri Feb 28, 8:00am

Fri Feb 28, 7:10am

Fri Feb 28, 7:00am

Fri Feb 28, 6:10am

Fri Feb 28, 6:00am

Fri Feb 28, 5:10am

Fri Feb 28, 5:00am

Fri Feb 28, 4:10am

Fri Feb 28, 4:00am

Fri Feb 28, 3:10am

Fri Feb 28, 3:00am

Fri Feb 28, 2:10am

Fri Feb 28, 2:00am

Fri Feb 28, 1:10am

Fri Feb 28, 1:00am

Fri Feb 28, 12:10am

Fri Feb 28, 12:00am

Thu Feb 27, 11:10pm

Thu Feb 27, 11:01pm

Thu Feb 27, 10:10pm

Thu Feb 27, 10:00pm

Thu Feb 27, 9:10pm

Thu Feb 27, 9:00pm

Thu Feb 27, 8:10pm

Thu Feb 27, 8:01pm

Thu Feb 27, 7:10pm

Thu Feb 27, 7:00pm

Wed Feb 26, 11:10am

Wed Feb 26, 11:00am

Wed Feb 26, 10:10am

Wed Feb 26, 10:01am

Wed Feb 26, 9:10am

Wed Feb 26, 9:00am

Wed Feb 26, 8:10am

Wed Feb 26, 8:00am

Wed Feb 26, 7:10am

Wed Feb 26, 7:00am

Wed Feb 26, 6:10am

Wed Feb 26, 6:00am

Wed Feb 26, 5:10am

Wed Feb 26, 5:00am

Wed Feb 26, 4:10am

Wed Feb 26, 4:00am

Wed Feb 26, 3:10am

Wed Feb 26, 3:00am

Wed Feb 26, 2:10am

Meta data:

ID: 3b21639e-4098-4c14-b594-dd5ac82a9add
Link: https://api.weather.gov/products/3b21639e-4098-4c14-b594-dd5ac82a9add